Volver al catálogo

STARLINK-32645

ActivoComunicacionesVLEO
NORAD 62321·PAYLOAD·🇺🇸 United States

Lanzado Dec 13, 2024 desde Vandenberg Space Force Base

Loading…

Próximos Pases (próximas 24 horas)

TLE

ActualizadoSource: CelesTrak SupGP

Época: Sep 15, 2026, 03:23 UTC

1 62321C 24239W   26258.14145833  .00053456  00000+0  15798-2 0  2588
2 62321  53.1601  18.8335 0001177  81.8558 238.4747 15.34355213    19

Sigue STARLINK-32645 en tiempo real con AllMySat

Download on the App Store